Location: Camp Schieffelin
(6.2159°N, 10.5837°W)
Time: 10:56:48
(UTC+00:00)

Daily predictions for brighter satellites

Satellite Brightness Start Highest point End
(mag) Time Altitude Azimuth Time Altitude Azimuth Time Altitude Azimuth
YAOGAN 1 4.1 18:44:53 10° ESE 18:47:28 16° ENE 18:50:04 10° NE
Cosmos 1602 Rocket 3.9 18:43:56 10° N 18:48:16 74° W 18:52:40 10° S
Cosmos 1758 Rocket 4.3 18:44:36 10° NNE 18:48:36 33° E 18:52:38 10° SSE
GOES 2 Rocket 3.7 18:45:35 10° NW 18:49:27 36° NNE 18:53:41 10° E
ASTEX 1 3.4 18:46:07 10° NNE 18:51:03 66° E 18:56:00 10° S
Okean-O 2.8 18:55:15 10° S 18:59:41 80° WSW 19:04:05 10° NNW
Cosmos 1241 Rocket 4.5 18:54:17 10° N 19:00:21 60° ENE 19:06:26 10° SSE
CSL-04 Rocket 4.4 18:58:44 10° SE 19:03:33 31° ENE 19:08:21 10° NNE
NOSS 3-2 (A) 3.4 18:58:24 10° S 19:03:40 47° ESE 19:08:59 10° NE
CZ-4C R/B 4.2 19:03:02 10° NNE 19:08:52 21° ENE 19:14:24 11° ESE
USA 234 3.6 19:02:40 10° NNE 19:09:08 69° NW 19:15:38 10° SW
Cosmos 2058 Rocket 3.3 19:05:24 10° S 19:09:47 74° W 19:14:08 10° N
Hubble Space Telescope 2.1 19:06:26 10° NNW 19:09:49 24° NNE 19:11:59 16° ENE
BREEZE-M DEB (TANK) 4.2 18:58:37 10° NW 19:12:05 88° NE 19:16:13 10° SE
GPS 2-04 Rocket1 4.3 19:14:03 10° W 19:17:00 27° SW 19:20:00 10° SSE
Cosmos 1727 Rocket 4.3 19:16:33 10° SSE 19:22:24 44° E 19:28:13 10° NNE
Cosmos 1271 Rocket 2.9 19:20:02 10° N 19:23:55 52° E 19:27:49 10° SSE
NOSS 3-2 (C) 3.5 19:19:30 10° S 19:24:40 41° ESE 19:28:19 18° NE
Palapa 6 Rocket 4.4 19:18:31 10° WNW 19:25:45 73° NNE 19:31:35 20° ESE
Cosmos 1726 3.7 19:23:36 10° SSW 19:27:02 37° W 19:30:27 10° NNW
Envisat 3.4 19:23:04 10° S 19:28:07 67° WSW 19:33:08 10° NNW
Atlas Centaur 2 3.7 19:25:38 10° NNW 19:28:31 14° NNE 19:29:42 13° NNE
ISS -3.6 19:25:26 10° NW 19:28:43 72° SW 19:31:27 14° SSE
Cosmos 2239 Rocket 4.4 19:27:50 10° N 19:33:58 89° E 19:40:08 10° S
ATLAS 5 CENTAUR R/B 2.7 19:29:29 10° WSW 19:34:19 78° SSE 19:45:26 23° ENE
FengYun 1-2 T 4.3 19:29:31 10° S 19:35:11 82° WSW 19:40:50 10° NNW
SAR-Lupe-2 3.6 19:34:25 36° NE 19:35:28 49° E 19:38:56 10° S
Cosmos 1821 Rocket 4.3 19:33:40 10° N 19:39:45 69° W 19:45:57 10° S
Cosmos 1605 Rocket 4.4 19:34:23 10° NNE 19:39:56 36° E 19:45:26 10° SSE
Cosmos 44 3.9 19:35:52 10° S 19:40:48 40° ESE 19:41:43 36° E
Cosmos 546 4.4 19:38:12 10° NW 19:42:03 81° NE 19:43:11 44° SE
CSL-04 Debris 4.1 19:37:04 10° SSE 19:42:28 87° ENE 19:47:53 10° NNW
Centaur AC-102 4.5 19:32:00 10° W 19:44:23 44° NNW 19:47:04 25° NE
Ariane H10 4.2 19:36:40 10° W 19:45:09 40° SSW 19:46:37 28° SE
CZ-4 R/B 2.5 19:43:31 10° S 19:47:20 44° W 19:51:14 10° NNW
Cosmos 1535 Rocket 4.4 19:48:16 10° N 19:54:24 86° W 20:00:30 10° S
Cosmos 1934 Rocket 4.0 19:50:06 10° N 19:56:28 84° W 20:02:50 10° S
Meteor 1-11 4.3 19:53:40 10° N 19:59:17 52° E 20:04:55 10° SSE
SWIFT 3.2 19:56:33 10° SW 20:00:05 38° S 20:00:05 38° S
deb Ariane 3.7 20:05:49 10° W 20:09:10 80° N 20:10:29 57° ENE
ATLAS 3B R/B 2.6 20:02:35 10° SSW 20:09:34 71° ESE 20:11:06 54° NE
Ariane Rocket 4.4 20:13:32 26° N 20:13:32 26° N 20:15:45 10° N
Cosmos 2297 3.5 20:05:06 10° SSW 20:10:44 80° ESE 20:11:12 73° NE
H-2A R/B 3.2 20:06:33 10° SW 20:10:30 22° S 20:10:30 22° S
CZ-2C R/B 4.5 20:09:41 16° N 20:13:07 51° WNW 20:17:38 10° SSW
Cosmos 1354 Rocket 4.2 20:11:32 10° NNW 20:16:43 68° WSW 20:21:55 10° S
BLOCK DM-SL R/B 3.7 20:14:34 10° WSW 20:18:19 41° S 20:18:19 41° S
ARIANE 5 R/B 4.1 20:15:14 10° WSW 20:20:00 63° S 20:25:26 40° ESE
ARIANE 5 R/B 4.1 20:15:15 10° WSW 20:20:00 63° S 20:25:27 40° ESE
ARIANE 5 R/B 4.1 20:15:14 10° WSW 20:20:01 63° SSE 20:25:27 40° ESE
CENTAUR R/B 2.2 20:19:47 10° SSW 20:24:41 72° WSW 20:24:41 72° WSW
ADEOS Rocket 3.4 20:22:55 10° N 20:30:13 73° WNW 20:36:50 10° SSW
Hubble Space Telescope 3.9 20:46:59 10° WNW 20:47:21 12° WNW 20:47:21 12° WNW
CZ-4C R/B 3.5 20:49:24 10° NW 20:57:31 60° WSW 20:59:51 46° SSW
